Showing default

QIANFAN-68, 62798

Orbit data source: Space-Track

QIANFAN-68, 62798 is a Chinese payload satellite in LEO that was launched on Thu, 23 Jan 2025 UTC via a CHANG ZHENG 6A launch vehicle from the Taiyaun Space Center, China (TSC). Payload-class satellites include a variety of spacecraft equipped with specific instruments for various scientific and technological missions. These include communications satellites like Starlink; space stations such as the ISS; scientific satellites like the Hubble; Earth observation satellites from companies like Planet Labs, Umbra, and HawkEye 360; GPS; miniature CubeSats for education and research; and military/defense satellites.

Loading next visibility...
Identifier
62798, 2025-016P
Orbit
LEO
Country
Flag of CNCN / PRC
Related business
Manufacturer
SECM
Mission
Operational Commercial Communications
Bus & Motor
QIANFAN, Unknown motor
Mass
267 kg wet, ~267 kg dry
Launch date (UTC)
2025-01-23 (11 months ago)
Launch vehicle
CHANG ZHENG 6A
Launch site
Taiyaun Space Center, China (TSC)
Object type
Payload
Rocket body
Debris
Shape & HBR
Box + 1 Pan, 1.3 m
Radar Cross Section
13.200 m², Large (>1 m²)

Expand to show TLE details & history
Last TLE update: 8 hours ago

TLE from 8 hours ago
0 QIANFAN-68
1 62798U 25016P   25352.60631033  .00000159  00000-0  22705-3 0  9999
2 62798  88.9779 102.4947 0013773 331.5575  28.4823 13.50985354 48034
Epoch: 2025-12-18T14:33Z
TLE epoch observation values (Epoch: 2025-12-18T14:33:05.212Z)
Latitude
-0.00002°
Longitude
156.76358°
Altitude
1,062.575 km
Speed
7.325 km/s
True Right ascension
06h 49m 58s
True Declination
0° 00' 00"
Sunlit
Object was in full shadow at epoch
Visualization orbit readout
Latitude
Unknown
Longitude
Unknown
Altitude
Unknown
Speed
Unknown
Apparent Right ascension
Unknown
Apparent Declination
Unknown
Sunlit
N/A
Visualization observer readout
Local Sidereal Time
20:57:57
Azimuth
Unknown
Elevation
Unknown
Doppler factor
Unknown
Orbital elements
Apogee altitude
1,075.939 km
Perigee altitude
1,055.434 km
Semi-major axis
7,443.824 km
Eccentricity
0.00138
Inclination
88.9779°
RAAN
102.4947°
Arg. of periapsis
331.5575°
True anomaly
28.55768°
Mean anomaly
28.4823°
Eccentric anomaly
28.51998°
Mean motion
3.37947 °/min
Orbital period
106.53 mins
BSTAR
0.00022705
Loading maneuver chart data...
Computing Atmospheric mass density...
Loading historical data...
Loading historical data...
Loading historical data...
Loading historical data...
Loading historical data...
Loading historical data...
Loading historical data...

Documentation

Showing up to 5 results
|